BEIDOU-2 G8

Last updated on Oct. 23, 2020, 5:56 a.m. UTC

1 44231U 19027A   20296.85458969 -.00000264  00000-0  00000-0 0  9999
2 44231   0.7034 302.4275 0008120 271.2974 270.0936  1.00266755  5392
UTC
Height (km)
Latitude
Longitude
Inclination
Orbital Period
UTC large
Height (km)
Speed (km/s)
/
Latitude / Longitude
Inclination (degrees)
Orbital Period (minutes)
Azimuth
Elevation
Range (km)
Doppler Factor
iOS Compass Heading
iOS Angle

Next 30 passes for location: Hong Kong

Rise time Rise Azimuth (degrees) Set time Set Azimuth (degrees) Duration Max altitude (degrees)

No matching passes for this satellites